Bookmark and Share
Track history (hours):
 

Berta

Last reported at 2014-Apr-20 07:22 UTC. Time now 2014-Apr-20 13:22 UTC.
Position N 59°08' E 004°03'.

Length 107 m; draft 6.7 m.

Type: Cargo ship. MMSI: 304586000.

NotesDate/timePositionNaut miles runAvg speedWind from/ knotsBaromVisibWave heightAir tempDewpointWater temp
2014-Apr-20 07:22N 59°08' E 004°03'20710.4
2014-Apr-19 11:32N 62°27' E 006°01'3 3.4
2014-Apr-19 10:31N 62°28' E 006°08'0 0.0
2014-Apr-19 09:21N 62°28' E 006°08'0 0.0
2014-Apr-19 08:31N 62°28' E 006°08'0 0.0
2014-Apr-19 07:33N 62°28' E 006°08'0 0.0
2014-Apr-19 06:30N 62°28' E 006°08'0 0.1
2014-Apr-19 05:26N 62°28' E 006°08'2 2.2
2014-Apr-19 04:29N 62°27' E 006°05'3 2.8
2014-Apr-19 03:32N 62°27' E 005°59'  
2014-Apr-15 23:33N 55°41' E 006°42'1212.1
2014-Apr-15 22:33N 55°29' E 006°48'1211.7
2014-Apr-15 21:33N 55°18' E 006°56'1111.4
2014-Apr-15 20:33N 55°08' E 007°02'1111.4
2014-Apr-15 19:33N 54°57' E 007°08'1111.3
2014-Apr-15 18:33N 54°46' E 007°13'1111.3
2014-Apr-15 17:33N 54°35' E 007°19'1111.4
2014-Apr-15 16:33N 54°24' E 007°25'1211.7
2014-Apr-15 15:33N 54°13' E 007°29'1212.1
2014-Apr-15 14:33N 54°02' E 007°38'12 6.0
2014-Apr-15 12:34N 53°53' E 007°51'1313.3
2014-Apr-15 11:34N 53°46' E 008°11'1212.2
2014-Apr-15 10:34N 53°38' E 008°27'5 4.5
2014-Apr-15 09:34N 53°35' E 008°32'0 0.0
2014-Apr-15 08:34N 53°35' E 008°32'1 1.4
2014-Apr-15 07:34N 53°36' E 008°30'1110.8
2014-Apr-15 06:34N 53°43' E 008°17'1010.1
2014-Apr-15 05:34N 53°50' E 008°04'19 9.5
2014-Apr-15 03:34N 53°59' E 007°37'9 8.7
2014-Apr-15 02:34N 54°00' E 007°51'8 8.4
2014-Apr-15 01:34N 54°01' E 008°06'1313.4
2014-Apr-15 00:34N 53°59' E 008°28'1212.3
2014-Apr-14 23:34N 53°51' E 008°45'1110.9
2014-Apr-14 22:34N 53°52' E 009°03'10 9.9
2014-Apr-14 21:33N 53°51' E 009°20'1111.4
2014-Apr-14 20:34N 53°41' E 009°30'1111.3
2014-Apr-14 19:33N 53°34' E 009°45'7 7.5
2014-Apr-14 18:34N 53°30' E 009°56'0 0.0
2014-Apr-14 17:33N 53°30' E 009°56'0 0.0
2014-Apr-14 15:30N 53°30' E 009°56'0 0.0
2014-Apr-14 14:30N 53°30' E 009°56'2 0.8
2014-Apr-14 11:31N 53°32' E 009°55'0 0.0
2014-Apr-14 10:31N 53°32' E 009°55'0 0.0
2014-Apr-14 09:31N 53°32' E 009°55'0 0.0
2014-Apr-14 08:31N 53°32' E 009°55'0 0.0
2014-Apr-14 07:32N 53°32' E 009°55'4 4.4
2014-Apr-14 06:33N 53°33' E 009°48'10 9.5
2014-Apr-14 05:34N 53°37' E 009°33'8111.6
2014-Apr-13 22:34N 54°13' E 007°29'1312.5
2014-Apr-13 21:33N 54°24' E 007°19'1312.8
2014-Apr-13 20:34N 54°35' E 007°09'1312.9
2014-Apr-13 19:33N 54°47' E 006°59'1312.9
2014-Apr-13 18:33N 54°58' E 006°49'19312.0
2014-Apr-13 02:33N 58°02' E 005°03'1111.0
2014-Apr-13 01:33N 58°13' E 005°05'1110.7
2014-Apr-13 00:33N 58°24' E 005°04'3411.3
2014-Apr-12 21:32N 58°58' E 004°59'1110.6
2014-Apr-12 20:32N 59°08' E 004°59'201 7.3
2014-Apr-11 17:11N 62°27' E 005°58'5 7.4
2014-Apr-11 16:32N 62°28' E 006°08'0 0.0
2014-Apr-11 15:34N 62°28' E 006°08'0 0.0
2014-Apr-11 14:33N 62°28' E 006°08'0 0.0
2014-Apr-11 13:32N 62°28' E 006°08'0 0.0
2014-Apr-11 12:33N 62°28' E 006°08'0 0.0
2014-Apr-11 11:21N 62°28' E 006°08'0 0.0
2014-Apr-11 10:31N 62°28' E 006°08'0 0.0
2014-Apr-11 09:33N 62°28' E 006°08'0 0.0
2014-Apr-11 08:33N 62°28' E 006°08'0 0.0
2014-Apr-11 07:29N 62°28' E 006°08'0 0.0
2014-Apr-11 06:25N 62°28' E 006°08'0 0.4
2014-Apr-11 05:33N 62°28' E 006°09'12 9.0
2014-Apr-11 04:14N 62°31' E 005°44'  

Dump ship's entire track history

sailing weather and tide predictions

Berta — V2BQ6 — position and weather